SM2GSR-2 Weather Reports


time (UTC)temp
F
wind
direction
speed
knots
gust
knots
rain 1hr
in
rain 24hr
in
rain mn
in
humidity
%
barometer
mb
20260505035503 34 305 7.0 10.4 0.00 0.07 0.00 69 992.2
20260505035003 34 283 6.1 13.0 0.00 0.07 0.00 69 992.1
20260505034503 34 289 7.0 11.3 0.00 0.07 0.00 69 992.1
20260505033503 33 296 3.5 7.8 0.00 0.07 0.00 70 992.1
20260505033003 33 327 0.0 7.0 0.00 0.07 0.00 72 992.1
20260505032503 33 292 5.2 10.4 0.00 0.07 0.00 73 992.1
20260505032004 32 288 2.6 7.8 0.00 0.07 0.00 74 992.1
20260505031503 32 272 1.7 8.7 0.00 0.07 0.00 75 992.1
20260505031003 32 296 4.3 7.0 0.00 0.07 0.00 75 992.1
20260505030004 31 288 4.3 7.0 0.00 0.07 0.00 76 992.1
20260505025504 31 292 4.3 7.8 0.00 0.07 0.00 76 992.1
20260505025003 31 310 4.3 7.0 0.00 0.07 0.00 77 992.1
20260505024503 31 296 3.5 7.0 0.00 0.07 0.00 77 992.2
20260505024003 31 274 4.3 5.2 0.00 0.07 0.00 78 992.1
20260505023503 31 267 4.3 10.4 0.00 0.07 0.00 78 992.1
20260505023004 30 293 4.3 8.7 0.00 0.07 0.00 78 992.1
20260505022503 30 292 3.5 8.7 0.00 0.07 0.00 78 992.0
20260505022003 30 288 3.5 7.8 0.00 0.07 0.00 78 992.0
20260505021004 30 281 0.9 5.2 0.00 0.07 0.00 79 991.9
20260505020503 30 284 3.5 6.1 0.00 0.07 0.00 78 991.9
20260505015503 30 297 3.5 6.1 0.00 0.07 0.00 79 991.8
20260505015004 30 288 0.0 6.1 0.00 0.07 0.00 79 991.7
20260505014503 30 285 0.9 7.8 0.00 0.07 0.00 79 991.7
20260505013503 30 282 0.0 0.0 0.00 0.07 0.00 79 991.7
20260505013003 30 279 0.0 0.0 0.00 0.07 0.00 79 991.7
20260505012503 30 269 0.0 0.0 0.00 0.07 0.00 79 991.6
20260505012003 30 289 0.0 0.0 0.00 0.07 0.00 79 991.7
20260505011503 30 292 0.0 0.0 0.00 0.07 0.00 79 991.7
20260505011003 30 290 0.0 0.0 0.00 0.07 0.00 79 991.7
20260505005503 30 291 0.0 0.0 0.00 0.07 0.00 80 991.7
20260505005004 30 275 0.0 0.0 0.00 0.07 0.00 80 991.6
20260505004504 30 292 0.0 0.0 0.00 0.07 0.00 81 991.6
20260505004003 30 279 0.0 0.0 0.00 0.07 0.00 81 991.7
20260505003503 30 288 0.0 0.0 0.00 0.07 0.00 81 991.6
20260505003003 30 277 0.0 0.0 0.00 0.07 0.00 81 991.6
20260505002503 30 283 0.0 0.0 0.00 0.07 0.00 81 991.6
20260505002003 30 277 0.0 0.0 0.00 0.07 0.00 81 991.6
20260505001503 30 289 0.0 0.0 0.00 0.07 0.00 81 991.6
20260505001004 30 277 0.0 0.0 0.00 0.07 0.00 81 991.6
20260505000503 30 285 0.0 0.0 0.00 0.07 0.00 81 991.6
20260505000003 30 285 0.0 0.0 0.00 0.07 0.00 81 991.6
20260504235504 30 272 0.0 0.0 0.00 0.07 0.00 81 991.5
20260504235004 31 284 0.0 0.0 0.00 0.07 0.00 81 991.5
20260504234504 31 273 0.0 0.0 0.00 0.07 0.00 81 991.4
20260504234005 30 270 0.0 0.0 0.00 0.07 0.00 81 991.4
20260504233504 30 284 0.0 0.0 0.00 0.07 0.00 82 991.3
20260504232504 29 278 0.0 0.0 0.00 0.07 0.00 83 991.3
20260504232009 29 279 0.0 0.0 0.00 0.07 0.00 82 991.2
20260504231503 30 279 0.0 0.0 0.00 0.07 0.00 81 991.3
20260504231003 30 279 0.0 0.0 0.00 0.07 0.00 82 991.3
20260504230004 30 279 0.0 0.0 0.00 0.07 0.00 79 991.2
20260504225503 31 278 0.0 0.0 0.00 0.07 0.00 79 991.2
20260504225004 31 278 0.0 0.0 0.00 0.07 0.00 79 991.3
20260504224504 31 278 0.0 0.0 0.00 0.07 0.00 79 991.2
20260504224003 32 280 0.0 0.0 0.00 0.07 0.00 78 991.2
20260504223004 32 283 0.0 0.0 0.00 0.07 0.00 77 991.1
20260504222503 33 284 0.0 0.0 0.00 0.07 0.00 75 991.2
20260504222003 33 284 0.0 0.0 0.00 0.07 0.00 76 991.1
20260504221503 33 288 0.0 0.0 0.00 0.07 0.00 75 991.1
20260504221003 34 285 0.0 0.0 0.00 0.07 0.00 75 991.1
20260504220504 34 272 0.0 0.0 0.00 0.07 0.00 81 991.1
20260504220003 34 288 0.0 0.0 0.00 0.07 0.00 76 991.1
20260504215503 34 296 0.0 0.0 0.00 0.07 0.07 77 991.1
20260504215003 34 292 0.0 0.0 0.00 0.07 0.07 76 991.1
20260504214503 34 268 0.0 0.0 0.00 0.07 0.07 77 991.1
20260504214004 33 254 0.0 0.0 0.00 0.07 0.07 76 991.1
20260504213503 33 270 0.0 0.0 0.00 0.07 0.07 76 991.1
20260504213003 33 261 0.0 0.0 0.00 0.07 0.07 76 991.1
20260504212003 34 247 0.0 4.3 0.00 0.07 0.07 76 991.1
20260504211504 34 230 0.9 6.1 0.00 0.07 0.07 75 991.1
20260504211003 34 256 0.0 0.0 0.00 0.07 0.07 75 991.1
20260504210503 34 283 0.9 7.8 0.00 0.07 0.07 75 991.1
20260504210004 34 261 0.0 0.0 0.00 0.07 0.07 75 991.0
20260504205503 34 275 1.7 7.8 0.00 0.07 0.07 75 991.1
20260504205003 34 271 0.0 0.0 0.00 0.07 0.07 75 991.1
20260504204503 34 275 0.0 0.0 0.00 0.07 0.07 73 991.1
20260504204004 34 272 0.0 0.0 0.00 0.07 0.07 73 991.0
20260504203504 35 264 0.0 0.0 0.00 0.07 0.07 72 990.9
20260504203003 35 259 0.0 0.0 0.00 0.07 0.07 71 991.0
20260504202503 35 280 0.0 0.0 0.00 0.07 0.07 70 990.9
20260504202003 36 242 0.0 0.0 0.00 0.07 0.07 69 990.9
20260504201504 36 237 0.0 0.0 0.00 0.07 0.07 68 990.9
20260504200504 36 263 0.0 0.0 0.00 0.07 0.07 66 990.8
20260504200004 36 227 0.0 0.0 0.00 0.07 0.07 65 990.8
20260504195503 36 246 0.0 0.0 0.00 0.07 0.07 63 990.8
20260504194503 37 283 0.0 0.0 0.00 0.07 0.07 61 990.8
20260504194004 37 270 0.0 0.0 0.00 0.07 0.07 61 990.8
20260504193503 37 257 2.6 7.0 0.00 0.07 0.07 60 990.8
20260504193004 38 288 0.9 6.1 0.00 0.07 0.07 59 990.7
20260504192503 38 278 2.6 7.0 0.00 0.07 0.07 59 990.7
20260504192003 38 291 2.6 6.1 0.00 0.07 0.07 59 990.8
20260504191504 38 290 4.3 8.7 0.00 0.07 0.07 59 990.7
20260504191004 38 278 2.6 7.0 0.00 0.07 0.07 59 990.8
20260504190003 39 282 0.0 0.0 0.00 0.07 0.07 56 990.9
20260504185503 39 297 0.0 0.0 0.00 0.07 0.07 55 990.8
20260504185004 39 286 0.9 7.0 0.00 0.07 0.07 55 990.8
20260504184504 40 272 4.3 7.8 0.00 0.07 0.07 54 990.8
20260504184004 40 238 5.2 10.4 0.00 0.07 0.07 53 990.7
20260504183503 40 290 4.3 7.8 0.00 0.07 0.07 53 990.8
20260504183003 40 277 4.3 10.4 0.00 0.07 0.07 53 990.8
20260504182503 41 288 5.2 11.3 0.00 0.07 0.07 53 990.7
20260504182003 41 279 0.0 4.3 0.00 0.07 0.07 55 990.7
20260504181503 41 291 4.3 7.8 0.00 0.07 0.07 54 990.7
20260504180503 42 271 5.2 10.4 0.00 0.07 0.07 52 990.7
20260504180003 42 265 0.9 8.7 0.00 0.07 0.07 53 990.7
20260504175503 42 306 2.6 12.2 0.00 0.07 0.07 52 990.8
20260504175004 42 265 6.1 10.4 0.00 0.07 0.07 51 990.7
20260504174504 42 288 1.7 10.4 0.00 0.07 0.07 51 990.7
20260504174003 42 261 0.0 2.6 0.00 0.07 0.07 51 990.6
20260504173503 43 302 2.6 8.7 0.00 0.07 0.07 50 990.6
20260504173003 43 279 4.3 10.4 0.00 0.07 0.07 49 990.5
20260504172503 43 291 6.1 10.4 0.00 0.07 0.07 49 990.5
20260504172003 44 284 4.3 13.0 0.00 0.07 0.07 49 990.6
20260504171504 44 303 0.9 8.7 0.00 0.07 0.07 49 990.6
20260504171004 44 301 0.0 8.7 0.00 0.07 0.07 48 990.6
20260504170504 44 277 4.3 12.2 0.00 0.07 0.07 47 990.6
20260504151003 45 215 0.0 4.3 0.00 0.07 0.07 54 990.5
20260504150504 45 235 0.0 4.3 0.00 0.07 0.07 53 990.6
20260504141003 46 169 0.0 5.2 0.00 0.07 0.07 60 991.0
20260504140503 45 192 0.0 6.1 0.00 0.07 0.07 61 991.2
20260504130503 45 283 1.7 6.1 0.00 0.07 0.07 62 991.0
20260504110503 36 245 0.0 7.0 0.04 0.07 0.07 87 992.6
20260504100503 43 249 0.9 5.2 0.00 0.03 0.03 74 992.4
20260504082004 39 174 2.6 7.0 0.00 0.03 0.03 89 993.2
20260504081503 38 136 0.0 0.0 0.00 0.03 0.03 89 993.2
20260504081003 38 135 0.0 0.0 0.00 0.03 0.03 89 993.3
20260504080504 38 135 0.0 0.0 0.00 0.03 0.03 89 993.4
20260504050004 33 124 0.0 4.3 0.00 0.00 0.00 89 995.0
20260504045503 33 129 1.7 5.2 0.00 0.00 0.00 89 995.2
20260504045004 33 172 0.0 0.0 0.00 0.00 0.00 89 995.4
20260504044504 33 172 0.0 0.0 0.00 0.00 0.00 89 995.6
20260504043504 33 172 0.0 0.0 0.00 0.00 0.00 89 995.8
20260504043004 33 172 0.0 0.0 0.00 0.00 0.00 88 995.9
20260504042504 33 172 0.0 0.0 0.00 0.00 0.00 88 996.1
20260504042003 34 172 0.0 0.0 0.00 0.00 0.00 87 996.1
20260504041503 34 172 0.0 0.0 0.00 0.00 0.00 87 996.0
20260504041003 34 172 0.0 0.0 0.00 0.00 0.00 86 996.1
20260504040504 34 172 0.0 0.0 0.00 0.00 0.00 85 996.1
20260504040004 35 172 0.0 5.2 0.00 0.00 0.00 83 996.2